RH
10 10 11 12 12 12 12 12 12 12 13 15 16 18 22 23 25 28 44 83 96 95 94 95 91 86 88 81 87 99 97 98 84
11 12 12 12 12 13 13 13 14 15 14 15 18 20 20 20 30 42 70 93 94 94 96 91 78 54 46 74 85 79 71 90 84
12 12 12 12 13 14 14 16 18 18 18 16 18 18 22 30 37 45 86 97 94 93 94 88 87 89 83 88 91 88 96 98 99
12 12 13 13 14 15 15 17 18 19 21 19 17 19 29 36 48 98 90 90 94 96 92 93 94 83 89 89 85 90 91 92 92
13 13 13 14 14 15 16 18 21 22 25 22 20 30 46 66 68 83 91 95 98 93 98 82 95 92 93 96 88 94 95 93 99
14 14 14 14 14 14 20 24 24 25 26 24 30 54 80 97 81 69 81 86 95 96 95 98 77 75 80 93 86 90 97 98 98
15 15 15 15 15 15 21 25 27 28 27 26 37 54 99 98 77 81 96 95 95 88 78 78 77 74 97 99 99 89 88 99 89
15 16 17 18 20 20 25 27 29 29 29 28 30 53 95 97 88 92 87 94 88 89 82 82 73 80 98 100 98 80 83 97 89
15 17 18 20 21 24 25 27 29 29 30 31 32 48 76 99 96 100 97 96 96 91 89 85 94 86 99 99 92 86 53 87 98
15 16 17 19 21 24 24 28 29 31 31 34 35 40 57 98 99 99 99 99 96 96 99 86 92 96 99 99 91 77 77 99 96
15 16 17 18 21 25 28 30 30 31 34 34 37 37 43 59 86 89 98 99 90 95 98 99 98 98 98 97 94 84 99 97 97
16 15 16 18 21 26 29 30 32 34 37 37 39 39 40 42 45 57 73 75 72 67 66 71 97 98 100 94 96 96 95 95 97
17 16 16 18 20 24 29 33 33 38 41 40 41 42 42 41 42 43 44 45 47 49 44 38 60 89 96 96 98 97 95 96 99
19 18 16 18 21 22 26 31 38 39 42 44 44 47 46 42 42 49 51 49 46 43 36 29 34 50 57 54 86 96 98 97 97
20 19 18 18 20 21 23 30 36 40 44 47 49 48 44 43 46 49 48 51 52 50 46 39 43 44 44 34 26 43 97 99 97
22 21 20 19 19 21 23 25 31 38 45 48 55 54 50 47 49 46 47 46 48 50 52 50 50 48 47 46 32 27 57 94 97
22 22 22 20 19 19 22 25 24 34 41 48 52 65 62 57 55 50 49 52 51 50 53 56 54 48 47 47 38 28 30 80 98
23 24 24 22 21 19 20 23 27 26 35 43 43 53 62 64 62 60 58 60 58 55 54 53 54 50 50 48 44 42 36 44 99
26 26 26 25 24 20 19 21 24 27 27 35 37 39 39 56 68 66 65 64 63 62 55 55 56 59 54 51 50 45 40 40 98
34 32 29 27 25 24 20 19 21 24 26 26 26 33 38 40 44 63 66 66 65 64 64 62 63 64 63 60 56 50 41 41 100
Wind_Speed
5 5 4 3 3 3 4 5 7 7 8 9 9 9 9 8 9 9 10 13 12 12 12 11 8 6 6 6 10 13 12 13 12
6 5 4 4 4 5 6 8 8 9 9 9 10 11 10 11 11 12 15 13 14 13 13 14 16 16 16 16 14 13 15 16 13
6 5 5 5 6 6 7 9 9 9 10 10 11 13 13 13 12 12 14 15 14 13 17 22 23 22 20 20 19 19 17 18 17
7 6 7 7 7 7 8 8 9 10 11 12 13 14 15 16 16 18 15 17 17 21 22 22 19 17 17 17 15 16 17 17 17
8 7 7 7 7 8 8 9 9 11 13 15 15 17 17 20 20 20 15 21 20 23 19 15 14 13 12 11 12 13 13 14 13
8 8 8 7 8 8 9 9 11 12 14 16 17 18 18 16 18 21 19 21 21 18 14 12 11 9 9 14 14 15 17 16 12
9 9 8 8 8 8 10 11 12 13 14 16 17 16 19 17 21 19 20 17 19 12 8 7 6 11 14 15 16 16 15 16 13
9 9 9 9 10 10 11 11 12 13 13 14 15 16 20 19 20 20 18 16 11 9 11 12 14 14 14 14 15 12 13 15 14
10 9 9 9 10 10 10 11 12 12 13 14 14 14 17 19 19 21 18 13 12 12 12 12 14 14 14 16 13 14 14 17 15
9 9 9 9 9 10 10 12 12 12 12 14 13 14 16 18 19 18 17 16 13 11 9 7 10 12 14 14 14 15 20 17 14
10 9 9 9 10 11 11 11 11 11 12 12 13 12 13 14 13 12 12 10 6 8 10 9 11 13 13 12 14 15 20 11 12
10 9 9 10 10 11 11 12 12 11 11 11 12 11 11 11 10 9 7 5 3 2 2 3 9 11 12 13 14 13 12 13 14
11 10 10 10 10 11 11 11 12 11 11 10 10 10 9 8 8 7 6 5 3 1 2 4 3 8 12 12 13 13 14 13 15
12 10 10 10 11 11 11 11 10 11 11 10 9 9 8 7 7 6 4 3 3 5 5 6 8 8 10 10 11 12 13 13 12
13 11 10 10 11 11 12 12 12 11 11 11 9 8 6 6 6 5 3 3 2 2 3 5 6 8 7 8 10 10 11 12 13
14 12 11 11 11 11 12 13 13 14 13 12 10 8 6 6 5 5 4 3 2 0 1 2 4 6 6 6 7 9 10 10 10
15 13 12 12 12 13 13 13 15 15 16 14 11 8 7 7 7 6 5 4 2 2 2 3 5 6 6 6 8 9 8 8 10
16 15 14 12 12 12 12 14 14 15 17 15 9 6 6 12 10 9 8 6 5 3 2 3 5 5 5 5 7 9 9 8 10
19 18 16 14 14 13 13 14 15 15 16 18 17 10 7 8 8 13 11 9 8 7 4 3 3 4 5 5 7 9 9 7 9
22 20 18 17 16 15 15 16 17 17 17 18 17 19 14 13 9 10 16 14 12 10 7 5 4 4 4 6 7 9 8 6 7
Wind_Direction
173 163 152 137 117 102 96 87 81 82 87 90 90 89 89 89 87 85 99 97 94 71 72 74 71 76 80 62 64 58 51 47 45
163 155 146 133 122 109 102 91 92 94 94 92 91 93 95 96 96 89 86 87 84 84 71 76 68 68 65 59 53 48 47 49 47
154 143 136 128 120 114 106 100 99 98 97 98 99 99 96 93 92 97 97 100 97 86 82 75 72 68 64 64 60 57 56 55 52
145 141 133 127 121 113 108 107 105 104 102 102 105 105 96 89 89 91 78 100 93 89 82 77 81 81 80 75 73 72 64 61 59
145 138 131 129 123 117 115 115 114 111 108 104 107 101 99 93 86 92 84 90 96 89 92 94 95 88 85 79 66 60 56 55 54
147 137 131 126 123 121 125 122 114 113 109 107 109 106 96 93 85 93 96 99 96 105 105 95 79 70 58 59 62 63 57 51 54
146 142 135 130 123 124 128 125 117 114 110 111 117 119 100 101 100 91 96 100 105 97 82 61 47 73 69 65 59 56 53 59 35
150 144 138 133 128 131 131 128 123 120 115 115 126 120 111 108 107 103 100 110 98 83 61 53 59 66 65 59 58 54 60 63 37
151 146 142 139 137 139 137 136 131 128 122 119 125 124 122 118 119 118 116 114 101 83 74 50 56 50 58 58 53 56 52 63 45
156 152 151 149 146 145 145 142 137 133 129 127 128 130 130 129 125 123 128 125 120 102 84 70 59 57 55 51 52 60 64 56 47
162 160 158 157 155 152 151 147 143 141 134 133 133 135 137 146 155 151 151 152 136 109 99 77 77 65 53 48 53 62 72 49 35
169 166 166 165 164 161 160 156 150 148 143 142 139 139 141 145 153 165 179 198 216 198 88 51 76 71 53 55 52 56 60 50 39
176 172 171 170 168 168 170 167 161 157 152 152 146 144 143 146 148 154 159 156 163 219 289 353 53 71 59 63 58 50 51 55 47
181 179 176 173 173 174 177 177 174 167 163 161 155 151 149 148 149 153 149 128 101 89 63 57 64 68 62 60 63 59 53 44 47
191 187 181 179 179 183 182 185 180 179 175 168 163 160 158 157 155 159 159 136 99 76 44 56 43 45 49 45 44 51 60 44 34
197 194 191 187 185 190 189 188 192 187 182 178 167 163 163 171 175 176 164 148 142 184 30 19 13 6 15 26 34 34 46 53 37
204 203 202 198 197 196 197 198 196 195 192 186 174 177 189 194 196 194 189 188 198 224 293 317 339 351 7 24 29 21 25 40 40
208 209 208 207 206 207 206 205 206 209 200 194 191 180 193 191 203 205 207 213 215 229 273 304 330 352 8 18 17 16 13 34 42
210 211 214 214 215 214 214 213 212 213 215 209 212 211 192 184 187 209 213 219 226 239 248 265 309 337 354 4 4 4 10 27 39
212 214 216 219 221 220 220 219 217 217 219 220 224 223 227 218 204 200 209 216 226 236 241 247 268 295 322 337 343 354 0 20 53